Minneapolis Flying Cloud, MN

11:24 PM CST on December 12, 2019 (GMT -0600)
Flying Cloud

Weather History for KFCM - October, 2019

Change the Weather History Date:

Sunday, October 20, 2019

  Actual Average Record
Temperature  
Mean Temperature 52 °F -  
Max Temperature 66 °F 55 °F 79 °F (2003)
Min Temperature 37 °F 37 °F 25 °F (1999)
Degree Days  
Heating Degree Days 14    
Growing Degree Days 2 (Base 50)    
Moisture  
Dew Point 37 °F    
Average Humidity 61    
Maximum Humidity 89    
Minimum Humidity 30    
Precipitation  
Precipitation 0.00 in - - ()
Sea Level Pressure  
Sea Level Pressure 29.79 in    
Wind  
Wind Speed 5 mph (SE)    
Max Wind Speed 17 mph    
Max Gust Speed -    
Visibility 9 miles    
Events      
Averages and records for this station are not official NWS values.
T = Trace of Precipitation, MM = Missing Value Source: NWS Daily Summary

Daily Weather History Graph

Daily Weather History Graph

Search for Another Location

Airport or City:

Astronomy

Oct. 20, 2019 Rise Set
Actual Time 7:35 AM CDT 6:20 PM CDT
Civil Twilight 7:05 AM CDT 6:50 PM CDT
Nautical Twilight 6:31 AM CDT 7:24 PM CDT
Astronomical Twilight 5:57 AM CDT 7:58 PM CDT
Moon 11:20 PM CDT (10/20) 2:14 PM CDT (10/20)
Length of Visible Light 11h 44m
Length of Day
10h 45m
Waning Gibbous, 59% of the Moon is Illuminated
Oct 20
Waning Gibbous
Oct 21
Last Quarter
Oct 27
New
Nov 4
First Quarter
Nov 12
Full

Hourly Weather History & Observations

Time (CDT) Temp. Windchill Dew Point Humidity Pressure Visibility Wind Dir Wind Speed Gust Speed Precip Events Conditions
12:06 AM 46.0 °F 44.8 °F 34.0 °F 63% 29.74 in 1.8 mi SW 3.5 mph - N/A   Haze
12:53 AM 45.0 °F 43.5 °F 36.0 °F 71% 29.75 in 6.0 mi SSW 3.5 mph - N/A   Haze
1:05 AM 45.0 °F 42.6 °F 37.0 °F 74% 29.75 in 1.8 mi SW 4.6 mph - N/A   Haze
1:25 AM 43.0 °F - 36.0 °F 76% 29.74 in 3.0 mi Calm Calm - N/A   Haze
1:53 AM 42.1 °F - 36.0 °F 79% 29.75 in 10.0 mi Calm Calm - N/A   Clear
2:53 AM 41.0 °F 39.0 °F 35.1 °F 79% 29.76 in 9.0 mi South 3.5 mph - N/A   Clear
3:53 AM 39.9 °F 36.7 °F 35.1 °F 83% 29.77 in 6.0 mi SSW 4.6 mph - N/A   Haze
4:53 AM 39.9 °F - 35.1 °F 83% 29.78 in 9.0 mi Calm Calm - N/A   Clear
5:53 AM 39.9 °F - 34.0 °F 79% 29.80 in 10.0 mi Calm Calm - N/A   Clear
6:53 AM 37.0 °F - 34.0 °F 89% 29.81 in 10.0 mi Calm Calm - N/A   Clear
7:53 AM 37.0 °F - 34.0 °F 89% 29.83 in 10.0 mi Calm Calm - N/A   Clear
8:53 AM 43.0 °F - 37.9 °F 82% 29.86 in 10.0 mi Calm Calm - N/A   Clear
9:53 AM 50.0 °F - 39.0 °F 66% 29.85 in 10.0 mi East 3.5 mph - N/A   Clear
10:53 AM 55.9 °F - 39.9 °F 55% 29.84 in 10.0 mi SE 4.6 mph - N/A   Clear
11:53 AM 61.0 °F - 39.9 °F 46% 29.85 in 10.0 mi ESE 5.8 mph - N/A   Clear
12:53 PM 64.9 °F - 36.0 °F 34% 29.84 in 10.0 mi ESE 9.2 mph - N/A   Clear
1:53 PM 66.9 °F - 36.0 °F 32% 29.82 in 10.0 mi East 9.2 mph - N/A   Clear
2:53 PM 66.0 °F - 34.0 °F 30% 29.81 in 10.0 mi SE 8.1 mph - N/A   Partly Cloudy
3:53 PM 64.9 °F - 37.9 °F 37% 29.81 in 10.0 mi SE 6.9 mph - N/A   Clear
4:53 PM 64.0 °F - 37.0 °F 37% 29.80 in 10.0 mi ESE 8.1 mph - N/A   Partly Cloudy
5:53 PM 62.1 °F - 36.0 °F 38% 29.79 in 10.0 mi East 8.1 mph - N/A   Clear
6:53 PM 61.0 °F - 39.0 °F 44% 29.79 in 10.0 mi ESE 11.5 mph - N/A   Clear
7:53 PM 60.1 °F - 37.9 °F 44% 29.80 in 10.0 mi ESE 11.5 mph - N/A   Clear
8:53 PM 57.9 °F - 39.0 °F 49% 29.79 in 10.0 mi ESE 15.0 mph - N/A   Clear
9:53 PM 57.9 °F - 41.0 °F 53% 29.79 in 10.0 mi ESE 12.7 mph - N/A   Clear
10:53 PM 55.9 °F - 44.1 °F 64% 29.78 in 10.0 mi SE 15.0 mph - N/A   Scattered Clouds
11:53 PM 57.0 °F - 43.0 °F 59% 29.74 in 10.0 mi ESE 17.3 mph - N/A   Mostly Cloudy